Theta_e
297 298 298 299 300 300 301 303 304 303 303 304 304 303 301 303 303 304 305 306 306 306 307 309 310 312 313 317 317 315 315 317 318 317 317 317 318 320 320 323 325 323 321 323
297 298 298 298 299 300 303 303 302 303 303 305 305 305 303 302 303 304 306 307 307 307 308 309 315 316 315 314 319 318 314 317 319 318 317 318 318 318 319 321 323 324 325 324
298 298 298 299 299 300 302 297 303 304 304 303 305 306 306 305 303 302 303 305 306 307 308 308 312 316 315 317 318 319 318 318 317 318 319 319 320 320 319 320 322 321 322 322
298 298 299 300 300 301 303 296 302 304 305 305 305 304 306 306 305 306 305 306 305 306 308 309 309 314 317 315 317 319 319 320 320 317 320 320 320 320 320 320 320 321 320 321
300 299 300 300 301 301 302 298 303 303 302 304 305 305 306 306 306 304 305 306 306 306 306 307 308 313 315 318 317 319 318 318 320 321 321 321 321 320 320 319 318 318 321 321
299 299 299 299 300 300 301 301 299 304 304 305 305 305 304 307 305 305 305 305 306 306 306 306 307 313 316 316 317 317 319 319 319 320 320 321 321 320 321 320 318 318 319 317
300 299 300 300 300 300 301 301 302 302 306 303 305 304 306 306 305 306 307 307 306 305 305 306 312 314 316 315 315 314 316 318 316 318 318 325 320 318 319 320 318 317 316 316
300 301 301 301 301 300 302 302 302 303 304 306 304 304 305 305 305 305 305 306 307 305 304 309 311 312 314 315 315 314 316 318 317 320 320 321 320 319 318 319 318 316 316 315
298 299 300 301 301 302 302 301 303 303 304 304 305 305 305 305 305 305 305 305 306 305 306 309 310 309 314 316 318 318 318 317 318 317 321 319 318 318 317 318 319 317 316 316
299 299 299 299 300 301 303 303 303 303 304 303 304 306 306 305 305 304 305 305 305 305 305 307 307 309 311 314 315 318 315 317 318 315 321 320 319 318 317 322 317 316 317 317
300 300 300 300 299 300 301 302 303 302 304 303 303 306 306 305 305 305 305 306 306 305 305 307 306 305 310 315 314 316 318 318 320 319 321 323 318 320 319 317 316 318 319 319
301 301 301 301 300 300 300 301 303 302 303 304 303 303 305 305 305 305 304 306 306 306 306 305 306 307 305 312 313 312 316 319 319 317 318 318 316 320 319 317 319 319 320 320
301 302 302 301 301 301 301 301 300 303 304 304 304 305 305 305 306 307 307 305 307 307 305 307 308 308 308 309 311 312 316 317 319 318 318 318 316 314 317 315 317 317 317 319
301 302 301 302 301 301 301 301 300 302 299 304 305 305 305 305 307 307 307 307 309 309 306 308 306 305 309 308 310 312 311 315 316 315 314 314 314 313 314 316 316 320 319 317
301 302 302 300 302 301 301 299 300 300 304 304 303 305 306 305 306 308 309 308 309 308 309 307 308 308 310 309 310 311 312 314 313 313 313 313 314 312 313 316 317 318 318 317
301 302 302 301 302 301 300 301 300 300 304 306 306 303 307 307 307 307 307 307 309 309 307 306 309 309 310 309 313 310 310 310 311 314 313 312 314 314 314 314 313 313 313 313
301 302 302 302 302 300 300 301 300 300 302 306 305 306 306 307 307 307 307 306 308 308 308 307 308 309 308 306 311 310 310 309 310 310 315 317 314 314 311 310 309 306 304 304
302 302 302 301 299 300 302 302 301 301 304 304 305 306 307 303 305 307 304 306 305 306 306 304 307 308 307 310 309 310 311 310 309 314 314 314 310 309 308 306 304 299 296 295
299 300 301 301 300 302 303 301 302 304 303 302 296 301 308 302 303 302 303 303 306 302 299 305 305 306 308 310 311 310 311 310 310 312 310 310 309 308 306 302 298 296 293 290
301 300 299 297 298 302 301 300 301 302 302 299 296 297 305 302 300 301 302 298 299 306 305 306 302 304 310 308 305 305 303 302 310 310 309 308 305 301 297 295 293 292 290 288
300 299 296 301 301 301 301 301 301 302 302 300 299 299 301 299 302 301 298 305 305 306 304 306 307 308 308 304 303 300 300 298 299 303 303 302 298 295 292 290 288 287 286 285
300 300 300 300 301 300 300 298 300 300 302 300 300 303 300 299 298 297 298 307 305 306 304 306 308 303 300 298 296 296 296 295 295 295 295 294 292 290 288 287 286 285 284 283
301 300 299 300 298 298 295 299 302 303 299 301 300 302 298 299 300 300 302 307 306 306 308 309 301 298 296 295 294 293 292 291 291 290 289 288 288 287 286 285 284 283 283 282
299 296 294 293 295 297 295 299 302 297 299 298 296 300 301 299 300 301 306 307 307 311 309 302 297 294 293 292 291 291 290 289 289 288 287 286 285 284 284 284 283 282 282 281
293 294 294 295 293 291 291 292 294 292 293 297 298 301 302 302 303 303 305 307 303 299 297 296 293 292 291 291 290 289 288 287 286 285 285 284 284 283 283 282 282 281 281 280
291 289 290 289 291 289 289 289 290 290 291 295 298 305 306 305 300 300 298 300 296 294 294 292 291 289 288 287 287 286 285 285 285 284 284 283 282 282 281 280 280 280 279 279
291 288 286 285 287 287 287 287 288 288 293 301 301 298 298 298 297 296 294 294 293 292 291 290 289 288 287 286 286 285 284 284 283 283 283 282 282 281 281 280 279 279 278 278
Wind_Speed
34 34 33 30 27 23 23 8 6 21 34 8 6 16 12 9 11 6 11 9 11 13 7 7 7 13 10 18 21 13 15 10 12 15 6 2 11 13 10 5 5 3 4 8
37 37 36 33 29 27 14 4 4 20 26 11 15 10 17 18 16 11 4 5 9 1 6 6 6 7 3 16 15 8 7 10 4 16 11 6 5 7 11 7 5 9 6 5
41 40 37 35 32 31 31 3 5 5 9 6 19 19 11 18 13 26 21 16 15 12 11 9 8 4 7 15 18 26 16 7 21 16 6 3 2 11 17 14 7 6 6 6
43 42 39 37 35 34 31 5 5 5 9 15 14 19 10 21 16 12 9 9 26 19 6 4 17 5 5 10 15 10 4 6 4 12 7 5 10 16 16 16 9 12 9 10
42 42 41 39 38 35 27 6 5 5 1 14 22 21 19 20 16 20 23 21 10 10 19 15 13 10 1 6 11 12 11 4 5 4 9 10 16 21 14 11 8 8 7 7
43 43 42 40 39 37 15 15 9 4 11 11 16 19 24 18 20 15 25 20 10 16 17 17 12 6 4 6 2 9 7 5 5 5 10 13 9 16 19 6 6 9 9 9
41 41 42 43 42 46 30 13 9 6 8 16 17 19 22 26 22 21 11 10 18 19 9 11 8 4 3 10 11 8 8 12 2 3 6 8 8 12 19 11 11 8 5 6
36 39 40 42 45 47 39 21 13 7 11 9 18 21 16 21 20 25 23 21 18 6 5 5 4 4 4 9 12 12 11 9 4 5 7 3 8 12 5 7 9 7 9 7
35 36 37 39 43 49 48 38 21 9 7 17 12 13 17 12 14 16 21 22 15 4 3 4 7 5 4 4 6 1 5 10 5 2 7 8 4 15 16 1 6 5 8 8
38 38 39 39 40 43 45 25 34 12 8 7 16 9 11 12 9 3 4 7 11 7 3 6 4 6 8 4 4 5 4 4 3 1 1 6 8 7 7 8 7 5 3 5
42 42 42 41 42 43 43 31 38 24 5 6 16 14 13 10 9 6 4 2 2 2 5 4 4 4 7 5 5 6 5 4 2 3 1 6 4 8 6 6 4 4 1 2
46 46 46 45 45 44 44 13 27 39 6 2 21 29 29 22 14 5 5 4 3 5 3 1 2 2 2 5 5 5 5 7 3 5 6 5 4 2 6 5 2 4 5 2
39 42 47 49 48 45 45 25 16 31 8 3 6 12 22 28 23 14 4 2 1 2 3 4 3 4 4 2 8 4 3 2 4 4 8 11 6 4 3 3 4 3 3 3
40 41 42 47 50 45 43 22 29 21 3 4 5 16 22 37 16 20 14 6 3 1 2 2 3 3 4 4 7 4 5 6 4 3 6 5 7 7 7 7 4 2 2 3
42 42 41 39 52 46 38 25 33 18 3 3 4 9 17 32 23 15 11 6 3 2 0 1 3 2 1 1 3 5 5 6 4 5 9 6 6 8 6 7 5 2 2 3
40 41 43 42 47 46 31 4 22 30 10 1 3 2 8 19 24 15 5 4 3 3 2 3 3 3 2 2 3 6 7 6 8 10 6 11 2 2 1 6 4 7 7 7
34 44 44 46 48 41 8 6 12 40 25 1 3 3 2 11 9 4 2 1 2 3 3 4 3 2 3 2 4 5 17 14 12 8 5 1 4 5 2 7 9 12 13 14
38 43 43 51 44 29 4 2 31 42 4 3 3 2 3 3 3 2 1 2 0 1 3 1 3 1 2 5 3 4 14 23 17 9 3 3 8 8 7 8 10 15 13 12
50 55 47 32 12 3 6 34 37 19 3 3 3 4 3 2 1 3 2 2 2 1 2 3 4 4 6 4 0 7 14 15 13 5 8 8 10 10 9 13 12 16 13 14
45 23 4 3 5 31 20 7 4 4 2 2 2 2 3 3 1 1 3 2 2 2 5 3 3 4 4 5 7 9 10 14 5 9 6 9 8 9 12 14 12 14 13 15
6 3 3 13 22 6 2 3 3 3 2 1 2 3 4 1 3 3 1 3 2 3 4 6 3 3 3 3 7 12 10 8 12 9 12 12 11 13 14 13 15 15 17 16
8 13 8 5 2 2 4 2 2 3 4 1 4 3 3 1 2 3 2 3 3 5 4 3 3 1 4 6 7 11 7 9 15 15 18 15 14 13 16 15 15 19 25 25
3 4 4 4 3 7 5 2 2 3 1 3 2 3 3 2 2 2 2 5 6 3 4 1 3 3 4 3 6 10 5 12 15 18 19 21 19 21 22 16 23 26 27 27
4 4 6 4 4 4 4 4 2 2 2 3 3 4 3 2 2 2 3 3 2 5 2 3 2 2 3 4 7 11 7 13 15 17 17 18 17 19 24 25 25 27 26 25
5 5 5 5 2 3 3 3 2 5 3 2 3 3 2 2 2 3 2 2 3 4 2 2 2 4 6 8 8 10 12 13 14 14 16 17 23 23 25 28 30 31 31 29
4 7 4 4 3 6 5 7 3 4 4 1 1 2 3 2 2 4 5 2 3 2 2 3 5 8 9 11 12 12 12 13 14 19 22 25 25 25 27 30 30 29 29 28
5 4 3 3 2 3 3 4 5 5 2 2 2 4 3 2 3 3 4 3 2 3 5 6 8 10 11 12 13 13 17 17 21 24 26 27 28 29 29 22 26 30 29 30
Wind_Direction
260 259 257 253 251 243 233 218 226 176 166 198 206 225 216 216 266 288 244 282 274 253 270 299 305 278 238 356 317 258 200 216 233 239 264 201 224 197 185 157 208 186 182 249
257 255 253 252 244 231 208 211 201 187 175 208 216 222 230 243 252 251 248 262 222 57 277 249 231 265 304 318 327 296 185 217 192 236 260 212 191 234 196 167 136 201 163 256
254 253 250 245 241 233 211 154 182 190 200 238 215 216 216 220 219 238 250 266 281 293 285 253 262 252 307 325 305 295 268 180 210 220 232 128 6 245 209 197 196 198 203 225
254 251 245 241 237 228 206 178 216 190 207 204 211 210 216 223 226 216 211 247 235 242 257 262 252 262 328 316 306 300 258 187 171 219 203 272 299 296 219 203 189 200 220 199
247 244 242 238 227 215 203 171 189 188 181 200 206 213 211 225 220 223 238 237 253 222 232 232 275 307 85 257 321 327 330 264 133 241 228 238 281 290 250 228 190 214 200 218
248 242 240 235 225 212 206 199 211 194 202 191 205 216 220 222 224 233 233 242 244 236 245 255 253 247 225 207 278 334 299 305 134 240 213 212 277 247 252 220 235 185 203 215
248 243 238 231 223 213 211 200 180 201 209 205 210 205 210 219 221 229 258 227 227 246 244 244 249 300 230 235 233 187 288 295 223 172 136 228 240 258 229 226 232 199 176 209
246 239 233 227 219 215 209 205 200 195 222 209 214 207 211 219 225 233 244 249 255 307 247 199 214 300 354 270 230 206 186 251 263 149 196 313 272 253 195 161 262 209 180 210
247 242 236 229 220 213 209 215 203 209 208 217 198 205 207 203 219 235 242 249 256 236 234 212 192 192 191 218 310 228 190 225 219 160 191 221 221 248 268 168 228 255 168 195
244 238 234 230 225 218 208 212 203 192 218 192 194 190 200 192 197 218 172 230 243 182 209 240 227 229 174 211 219 93 351 294 170 70 180 287 258 302 180 224 229 237 203 169
241 235 229 225 221 217 209 219 195 193 210 200 203 187 189 214 208 192 228 140 232 109 185 197 221 195 215 198 190 145 165 272 159 123 345 257 8 340 176 225 251 254 147 205
236 231 225 221 216 212 208 211 211 191 197 217 207 215 198 208 222 169 213 215 155 190 147 203 123 254 315 143 261 164 234 173 253 173 203 256 293 177 294 340 298 359 106 32
234 226 219 214 210 206 203 204 197 183 187 166 203 210 199 209 226 215 161 265 196 108 192 181 192 198 148 251 234 214 285 124 213 110 228 238 266 267 265 323 320 310 36 109
229 220 215 211 202 199 192 190 182 188 113 178 196 202 202 212 231 212 208 196 103 120 86 250 180 168 168 231 243 192 205 154 191 261 274 275 263 250 261 243 227 279 11 161
215 208 205 202 195 187 178 161 177 171 175 148 154 183 213 210 207 197 200 175 131 120 243 113 264 252 140 176 32 269 195 187 166 223 231 192 234 255 195 238 249 237 59 85
192 191 186 183 179 163 141 129 184 193 200 269 144 147 169 184 195 202 192 183 142 129 143 220 195 247 103 122 226 281 250 208 192 241 218 213 175 107 84 117 73 41 38 21
174 175 172 171 166 148 141 170 170 184 202 237 94 97 98 172 162 164 156 152 183 140 154 210 176 190 109 153 240 262 288 299 293 231 126 78 169 142 47 89 81 78 62 47
138 157 153 141 136 144 132 158 164 170 186 188 123 157 89 3 114 127 62 123 177 146 179 90 136 86 144 234 226 273 290 284 273 275 250 163 115 108 100 91 92 71 65 61
121 123 118 109 108 103 119 139 146 178 211 111 109 129 137 62 108 108 61 120 166 359 172 186 124 188 225 231 124 325 323 301 261 168 115 98 108 106 86 85 79 89 84 79
115 106 71 100 185 131 107 55 32 14 299 79 94 115 108 107 92 71 99 90 190 201 227 151 168 232 188 119 85 39 325 318 203 123 109 112 97 92 83 85 87 93 93 94
69 53 65 119 103 85 71 141 148 139 54 32 123 119 121 357 115 141 182 168 178 215 236 164 227 240 157 133 82 60 352 350 15 62 83 83 109 117 107 94 90 92 93 91
117 130 140 138 109 91 104 40 16 80 156 97 116 134 121 106 83 104 200 187 177 240 147 142 227 55 28 63 50 62 358 61 64 62 81 85 90 100 104 104 101 98 99 97
70 59 53 24 344 54 71 100 12 100 93 152 126 105 114 110 139 114 152 197 217 131 176 172 48 58 27 59 85 64 29 78 84 80 79 83 85 88 94 96 96 99 97 100
60 56 36 64 17 42 25 355 40 34 2 97 106 109 122 135 139 179 215 211 210 197 155 81 56 20 47 59 80 95 101 86 85 90 92 89 87 87 87 90 96 97 94 94
52 30 50 54 52 14 350 323 40 3 321 357 66 89 113 129 193 192 289 166 75 39 48 43 53 55 76 76 81 84 82 83 85 89 92 93 94 91 89 90 93 94 94 94
57 38 21 3 27 11 13 3 15 356 338 292 46 149 151 99 52 49 15 43 46 29 43 77 79 77 77 79 78 79 82 83 87 88 91 93 92 91 90 85 83 84 88 86
52 32 0 6 36 18 358 342 345 317 303 45 29 52 42 16 71 67 23 33 38 56 76 77 83 92 94 92 89 87 90 91 92 94 92 93 94 93 89 85 85 86 85 87